Weather in Weno

The Federated States of Micronesia     7°27′49″N   151°50′46″E
temp.,
°C
wind,
m/s
gust,
m/s
humid.,
%
clouds,
%
prec.,
mm/h
press.,
hPa
HPBL,
m
17 april, sat
sat1701:00+28ne7775100 0.2 1009905
04:00+28ne7776100 0.9 1009881
07:00+28ne7776100 0.1 1010886
10:00+28ne7777100 0.1 1010894
13:00+28ne6777100 0.1 1008885
16:00+29ne777632 0.2 1007944
19:00+29ne7776100 0.1 1008932
22:00+29ne777639 1.1 1010892
18 april, sun
sun1801:00+28ne677998 0.6 1008700
04:00+28ne677914 1.1 1007804
07:00+28ne667828 0.8 1009787
10:00+28ne66777 0.8 1009876
13:00+28ne5676100 0.3 1006801
16:00+29ne667499 0.4 1005908
19:00+29ne6675100 0.1 1007863
22:00+29ne5575100 0.1 1008881
19 april, mon
mon1901:00+28nne5576100 0.1 1006701
04:00+28ne5576100 0.9 1006807
07:00+28ne4575100 0.2 1008750
10:00+28ne4475100 0.8 1009764
13:00+28nne337436 0.1 1006748
16:00+29nne227245 0.1 1006759
19:00+29ne2272100 0.1 1007660
22:00+28e2272100 0.1 1009656
20 april, tue
tue2001:00+28se1173100 0.0 1007631
04:00+28ssw1173100 0.6 1007492
07:00+28sw1172100 0.8 1009423
10:00+28ssw1172100 1.1 1010471
13:00+28sw2271100 0.2 1008651
16:00+29wsw236925 0.3 1008800
19:00+29sw2370100 0.0 1009852
22:00+28ssw2271100 0.3 1011507
21 april, wed
wed2101:00+28ssw4374100 0.6 1009702
04:00+27s3375100 1.1 1009424
07:00+27s4475100 1.5 1011660
10:00+27sse327496 1.5 1011507
13:00+28sse337179 0.0 1009736
16:00+28sse4469100 0.0 1009729
19:00+28s4470100 0.0 1010731
22:00+28s567596 0.0 1011779